Meteopurmerend
purmerend
Purmerend - Baaienwijk



My webcam  My webcam


waarschuwing voor Onweer Meer informatie blitzortung!


Regen radar Meer informatie rain snow radar


Bezoek onze andere website:

CandyAppleRed WebdesignWebdesign Purmerend Candy Apple Red

MeteopurmerendBlog

Template documentation
and downloads



Onweer van: 26-07-2021 13:00 tot: 21:00 waarschuwing voor: Onweer niveau: Geel info button
Enkele onweersbuien, lokaal met hagel en veel neerslag in korte tijd.Kans op blikseminslag, hagel en veel neerslag in korte tijd.Verkeer en buitenactiviteiten kunnen hinder ondervinden.Mijd open water en open gebied, schuil niet onder bomen.Volg weerberichten en waarschuwingen.

15 daagse weersverwachting Malmö (SE)

  • Overzicht
  • Per uur
  • 15 dagen
  • Extra
  • Vergelijk
  • Kaarten
  • Dagkaart
  • Meer »
  • Info
  • Statistieken
  • Directe link
    Temp 6h Neerslag Wind  
 05:06     21:24    Daglengte: 16:18 Vandaag
20:00
25°
 
4
 05:08     21:22    Daglengte: 16:14 Morgen
02:00
20°
 
2
08:00
21°
 
2
14:00
23°
1.0 mm
5
20:00
22°
 
5
 05:10     21:20    Daglengte: 16:10 Woensdag 28 Jul
02:00
20°
 
2
08:00
20°
1.0 mm
3
14:00
22°
2.0 mm
7
20:00
21°
4.9 mm
5
 05:12     21:18    Daglengte: 16:06 Donderdag 29 Jul
02:00
18°
6.5 mm
6
08:00
18°
6.7 mm
7
Locatie info
Region: Skåne län
Latitude: 55.5967°N
Longitude: 13.0011°E
12 masl
Postcode: 211 43
Temp/Neerslag /Baro Onweer/Dauwpunt
    Temp Baro 1h Neerslag Dauwpunt Wind UV Bewolking  
 05:06     21:24    Daglengte: 16:18 Vandaag
16:00
26°
1011.4 hPa
66%
13.2°
4
Windvlaag: 1 m/s
54%
17:00
26°
1011.2 hPa
64%
13.2°
5
Windvlaag: 4.3 m/s
42%
18:00
26°
1011.0 hPa
26%
14.1°
4
Windvlaag: 4.9 m/s
53%
19:00
26°
1010.8 hPa
20%
14.8°
4
Windvlaag: 5 m/s
73%
20:00
25°
1010.7 hPa
52%
14.2°
4
Windvlaag: 5 m/s
39%
21:00
24°
1010.8 hPa
15%
14.6°
3
Windvlaag: 5 m/s
51%
22:00
23°
1010.7 hPa   16.3°
3
Windvlaag: 3.7 m/s
19%
23:00
22°
1010.7 hPa   17.3°
3
Windvlaag: 1.8 m/s
19%
 05:08     21:22    Daglengte: 16:14 Morgen
00:00
21°
1010.6 hPa   17.4°
3
Windvlaag: 0.9 m/s
60%
01:00
20°
1010.2 hPa   17.8°
3
Windvlaag: 0.3 m/s
66%
02:00
20°
1010.0 hPa   18.4°
2
Windvlaag: -0.5 m/s
20%
03:00
20°
1009.9 hPa
64%
18.8°
2
Windvlaag: 0.6 m/s
65%
04:00
20°
1009.7 hPa
66%
19.1°
2
Windvlaag: 1 m/s
63%
05:00
19°
1009.3 hPa
67%
18.9°
2
Windvlaag: 2.1 m/s
71%
06:00
19°
1009.1 hPa
33%
18.8°
2
Windvlaag: 2.3 m/s
67%
07:00
20°
1009.0 hPa
11%
18.8°
2
Windvlaag: 2.8 m/s
78%
08:00
21°
1009.1 hPa
11%
18.5°
2
Windvlaag: 2.9 m/s
36%
09:00
22°
1009.3 hPa
13%
19.0°
2
Windvlaag: 4.5 m/s
42%
10:00
22°
1009.4 hPa
74%
19.2°
3
Windvlaag: 5.4 m/s
34%
11:00
23°
1009.4 hPa 0.3 mm
74%
19.1°
4
Windvlaag: 5.5 m/s
31% warningclass
12:00
23°
1009.4 hPa 0.3 mm
74%
18.1°
4
Windvlaag: 5.1 m/s
43%
13:00
23°
1009.5 hPa 0.4 mm
78%
16.3°
5
Windvlaag: 4 m/s
55%
14:00
23°
1009.5 hPa
78%
14.2°
5
Windvlaag: 4 m/s
15%
15:00
24°
1009.4 hPa
78%
14.5°
5
Windvlaag: 7.4 m/s
19%
16:00
24°
1009.3 hPa
34%
15.0°
5
Windvlaag: 8.8 m/s
7%
17:00
24°
1009.1 hPa
67%
14.1°
5
Windvlaag: 8.2 m/s
15%
18:00
24°
1009.0 hPa
26%
13.7°
6
Windvlaag: 8.4 m/s
7%
19:00
23°
1008.9 hPa
15%
16.0°
5
Windvlaag: 8.4 m/s
12%
20:00
22°
1009.0 hPa
13%
16.7°
5
Windvlaag: 8.1 m/s
18%
21:00
21°
1009.2 hPa
16%
17.4°
5
Windvlaag: 7.6 m/s
46%
22:00
21°
1009.5 hPa
13%
18.1°
4
Windvlaag: 6.6 m/s
63%
23:00
20°
1009.6 hPa
13%
17.6°
4
Windvlaag: 6.5 m/s
42%
 05:10     21:20    Daglengte: 16:10 Woensdag 28 Jul
00:00
20°
1009.7 hPa
13%
17.4°
4
Windvlaag: 5.3 m/s
9%
01:00
20°
1009.4 hPa
13%
17.6°
3
Windvlaag: 4.5 m/s
9%
02:00
20°
1009.2 hPa
14%
18.0°
2
Windvlaag: 3.2 m/s
17%
03:00
19°
1008.8 hPa
13%
18.1°
2
Windvlaag: 3.3 m/s
39%
04:00
19°
1008.7 hPa
13%
17.8°
2
Windvlaag: 3.6 m/s
20%
05:00
18°
1008.5 hPa
13%
17.8°
2
Windvlaag: 4.4 m/s
60%
06:00
18°
1008.4 hPa
14%
17.7°
2
Windvlaag: 4.9 m/s
76%
07:00
19°
1008.3 hPa
31%
18.3°
3
Windvlaag: 7.3 m/s
79%
08:00
20°
1008.1 hPa 1.0 mm
78%
16.9°
3
Windvlaag: 5.7 m/s
62%
09:00
20°
1008.2 hPa
82%
14.6°
4
Windvlaag: 5.2 m/s
71%
10:00
21°
1008.1 hPa
79%
13.8°
5
Windvlaag: 5.9 m/s
16%
11:00
20°
1008.0 hPa 1.0 mm
100%
13.9°
5
Windvlaag: 6.3 m/s
39%
12:00
21°
1007.8 hPa
100%
14.7°
6
Windvlaag: 7.4 m/s
24%
13:00
21°
1007.6 hPa 1.0 mm
48%
13.7°
6
Windvlaag: 8.3 m/s
24%
14:00
22°
1007.1 hPa
32%
13.6°
7
Windvlaag: 9.1 m/s
38%
15:00
22°
1007.0 hPa
39%
13.9°
7
Windvlaag: 9.2 m/s
21%
16:00
22°
1006.8 hPa
88%
14.0°
6
Windvlaag: 9.2 m/s
59%
17:00
22°
1006.6 hPa 1.1 mm
46%
14.1°
6
Windvlaag: 8.4 m/s
73%
18:00
21°
1006.2 hPa 1.6 mm
87%
12.9°
6
Windvlaag: 8.2 m/s
45%
19:00
21°
1005.7 hPa
87%
13.1°
5
Windvlaag: 6.7 m/s
42%
20:00
21°
1005.6 hPa 2.2 mm
91%
12.9°
5
Windvlaag: 7.4 m/s
67%
21:00
20°
1005.6 hPa 1.6 mm
100%
13.1°
4
Windvlaag: 6.8 m/s
55% warningclass
22:00
19°
1005.6 hPa 1.4 mm
100%
13.5°
5
Windvlaag: 6.8 m/s
93% warningclass
23:00
19°
1005.5 hPa 1.1 mm
100%
16.3°
6
Windvlaag: 8.4 m/s
65%
 05:12     21:18    Daglengte: 16:06 Donderdag 29 Jul
00:00
19°
1005.2 hPa 0.8 mm
92%
12.6°
6
Windvlaag: 8.3 m/s
4%
01:00
19°
1005.2 hPa 0.9 mm
90%
13.9°
7
Windvlaag: 8 m/s
34%
02:00
18°
1005.0 hPa 0.7 mm
87%
15.5°
6
Windvlaag: 7.2 m/s
54%
03:00
18°
1004.8 hPa 1.2 mm
98%
15.8°
6
Windvlaag: 6.4 m/s
78% warningclass
04:00
18°
1004.4 hPa 1.0 mm
100%
15.8°
6
Windvlaag: 6.4 m/s
37% warningclass
05:00
18°
1004.1 hPa 1.2 mm
95%
15.0°
7
Windvlaag: 7.4 m/s
19%
06:00
18°
1004.2 hPa 1.2 mm
92%
14.2°
6
Windvlaag: 7.3 m/s
12%
07:00
18°
1004.2 hPa 1.2 mm
92%
13.5°
6
Windvlaag: 7.5 m/s
48%
08:00
18°
1004.0 hPa 0.9 mm
98%
13.6°
7
Windvlaag: 9.3 m/s
43%
09:00
18°
1002.3 hPa 1.5 mm
100%
10.0°
7
Windvlaag: 9.6 m/s
63%
10:00
18°
1002.1 hPa 2.0 mm
100%
10.1°
8
Windvlaag: 10.8 m/s
100% warningclass
11:00
18°
1002.1 hPa 2.1 mm
100%
11.3°
8
Windvlaag: 12.9 m/s
98% warningclass
12:00
18°
1002.0 hPa 1.8 mm
100%
11.4°
9
Windvlaag: 13.7 m/s
76%
13:00
18°
1001.9 hPa 1.6 mm
100%
9.9°
10
Windvlaag: 14.9 m/s
91%
14:00
18°
1001.8 hPa 1.3 mm
100%
8.0°
10
Windvlaag: 15.3 m/s
98%
Temp/Neerslag /Baro Onweer/Dauwpunt
    Temp Baro Neerslag Dauwpunt Wind Bewolking  
 05:06     21:24    Daglengte: 16:18 Vandaag
17:00
26°
1011.2 hPa   13.2°
5
42%
20:00
25°
1010.7 hPa   14.2°
4
39%
23:00
22°
1010.7 hPa   17.3°
3
19%
 05:08     21:22    Daglengte: 16:14 Morgen
02:00
20°
1010.0 hPa   18.4°
2
20%
05:00
19°
1009.3 hPa   18.9°
2
71%
08:00
21°
1009.1 hPa   18.5°
2
36%
11:00
23°
1009.4 hPa 0.3 mm 19.1°
4
31% warningclass
14:00
23°
1009.5 hPa 0.8 mm 14.2°
5
15%
17:00
24°
1009.1 hPa   14.1°
5
15%
20:00
22°
1009.0 hPa   16.7°
5
18%
23:00
20°
1009.6 hPa   17.6°
4
42%
 05:10     21:20    Daglengte: 16:10 Woensdag 28 Jul
02:00
20°
1009.2 hPa   18.0°
2
17%
05:00
18°
1008.5 hPa   17.8°
2
60%
08:00
20°
1008.1 hPa 1.0 mm 16.9°
3
62%
11:00
20°
1008.0 hPa 1.0 mm 13.9°
5
39%
14:00
22°
1007.1 hPa 1.0 mm 13.6°
7
38%
17:00
22°
1006.6 hPa 1.1 mm 14.1°
6
73%
20:00
21°
1005.6 hPa 3.8 mm 12.9°
5
67%
23:00
19°
1005.5 hPa 4.1 mm 16.3°
6
65%
 05:12     21:18    Daglengte: 16:06 Donderdag 29 Jul
02:00
18°
1005.0 hPa 2.3 mm 15.5°
6
54%
05:00
18°
1004.1 hPa 3.4 mm 15.0°
7
19%
08:00
18°
1004.0 hPa 3.3 mm 13.6°
7
43%
11:00
18°
1002.1 hPa 5.6 mm 11.3°
8
98% warningclass
14:00
18°
1001.8 hPa 4.8 mm 8.0°
10
98%
17:00
17°
1002.3 hPa 11.3 mm 11.5°
14
1%
20:00
17°
1002.5 hPa 12.8 mm 12.6°
13
1%
23:00
16°
1002.7 hPa 13.0 mm 12.2°
12
1%
 05:13     21:17    Daglengte: 16:04 Vrijdag 30 Jul
02:00
16°
1001.3 hPa 14.1 mm 13.5°
12
1%
05:00
17°
1000.1 hPa 16.2 mm 13.3°
12
1%
08:00
17°
1000.7 hPa 16.7 mm 13.7°
12
1%
11:00
20°
1001.4 hPa 16.9 mm 14.5°
10
1%
14:00
21°
1001.7 hPa 17.5 mm 14.7°
11
1%
17:00
21°
1002.5 hPa 17.7 mm 13.9°
11
0%
20:00
19°
1003.2 hPa 17.7 mm 13.9°
10
0%
23:00
18°
1003.8 hPa 17.7 mm 12.9°
10
0%
 05:15     21:15    Daglengte: 16:00 Zaterdag 31 Jul
02:00
16°
1004.6 hPa 17.7 mm 13.0°
9
0%
05:00
16°
1003.9 hPa 17.7 mm 13.8°
7
0%
08:00
17°
1004.4 hPa 17.8 mm 13.7°
7
1%
11:00
19°
1004.4 hPa 17.9 mm 13.4°
7
1%
14:00
20°
1003.6 hPa 17.9 mm 13.8°
6
1%
17:00
20°
1002.5 hPa 18.7 mm 14.5°
7
1%
20:00
18°
1001.0 hPa 21.1 mm 15.2°
6
1%
23:00
17°
1000.8 hPa 24.7 mm 13.6°
6
0%
 05:17     21:13    Daglengte: 15:56 Zondag 01 Aug
02:00
16°
999.9 hPa 25.9 mm 12.6°
6
1%
05:00
16°
999.9 hPa 26.3 mm 12.5°
7
1%
08:00
16°
1001.1 hPa 26.4 mm 12.1°
6
1%
11:00
17°
1002.2 hPa 26.4 mm 10.8°
6
1%
14:00
20°
1002.4 hPa 26.5 mm 10.4°
7
1%
17:00
19°
1002.7 hPa 26.8 mm 11.1°
8
1%
20:00
18°
1002.5 hPa 27.1 mm 10.1°
7
1%
23:00
17°
1002.9 hPa 27.1 mm 9.6°
7
1%
 05:19     21:11    Daglengte: 15:52 Maandag 02 Aug
02:00
15°
1003.3 hPa 27.1 mm 9.5°
8
1%
05:00
14°
1003.2 hPa 27.1 mm 10.1°
8
0%
08:00
15°
1003.6 hPa 27.3 mm 9.8°
9
0%
11:00
17°
1004.4 hPa 27.7 mm 9.8°
11
1%
14:00
18°
1005.4 hPa 55.8 mm 10.0°
10
1%
20:00
17°
1006.8 hPa 57.2 mm 9.3°
10
1%
 05:21     21:09    Daglengte: 15:48 Dinsdag 03 Aug
02:00
15°
1009.1 hPa 58.4 mm 10.2°
10
1%
08:00
15°
1010.3 hPa 59.6 mm 11.0°
8
1%
14:00
19°
1010.5 hPa 60.9 mm 10.7°
9
1%
20:00
18°
1010.5 hPa 61.4 mm 10.3°
6
1%
 05:23     21:07    Daglengte: 15:44 Woensdag 04 Aug
02:00
16°
1011.2 hPa 61.6 mm 10.7°
5
1%
08:00
18°
1010.1 hPa 61.6 mm 13.4°
8
1%
14:00
19°
1008.1 hPa 64.2 mm 14.2°
11
1%
20:00
19°
1005.6 hPa 66.8 mm 14.6°
8
1%
 05:24     21:05    Daglengte: 15:41 Donderdag 05 Aug
02:00
17°
1003.8 hPa 77.1 mm 13.7°
8
1%
08:00
17°
1002.2 hPa 83.8 mm 13.4°
9
0%
14:00
19°
1009.1 hPa 0.5 mm 13.0°
4
67%
20:00
18°
1008.2 hPa 0.6 mm 13.0°
3
74%
 05:26     21:02    Daglengte: 15:36 Vrijdag 06 Aug
02:00
16°
1007.7 hPa 0.7 mm 12.4°
1
72%
08:00
17°
1006.6 hPa 0.7 mm 13.0°
1
78%
14:00
19°
1005.9 hPa 0.5 mm 13.6°
3
81%
20:00
18°
1004.9 hPa 1.2 mm 13.6°
2
70%
 05:28     21:00    Daglengte: 15:32 Zaterdag 07 Aug
02:00
16°
1004.7 hPa 1.1 mm 12.9°
2
65%
08:00
17°
1004.3 hPa   13.2°
1
63%
14:00
19°
1004.2 hPa 1.7 mm 13.8°
2
62%
20:00
18°
1004.1 hPa 1.5 mm 13.3°
2
64%
 05:30     20:58    Daglengte: 15:28 Zondag 08 Aug
02:00
16°
1005.0 hPa 0.5 mm 12.7°
2
61%
08:00
16°
1005.3 hPa 0.6 mm 13.2°
3
51%
14:00
19°
1006.1 hPa 0.5 mm 13.4°
4
67%
20:00
18°
1006.5 hPa 1.6 mm 13.2°
3
62%
 05:32     20:56    Daglengte: 15:24 Maandag 09 Aug
02:00
16°
1007.5 hPa 0.8 mm 12.5°
3
51%
08:00
16°
1007.5 hPa 0.7 mm 12.7°
3
62%
14:00
18°
1008.4 hPa 1.5 mm 13.1°
4
62%
20:00
17°
1008.9 hPa 1.4 mm 13.4°
4
58%
 05:34     20:54    Daglengte: 15:20 Dinsdag 10 Aug
02:00
16°
1010.0 hPa 1.0 mm 12.7°
4
71%
08:00
16°
1010.4 hPa 0.5 mm 12.5°
4
69%
14:00
19°
1011.1 hPa 0.7 mm 12.8°
5
63%
  CAPE Lifted Index Hail Supercell Tornado SRH 3km CL BTM PRES CL TOP PRES Swiss DWD icon SMHI TS
 05:06     21:24    Daglengte: 16:18 Vandaag
16:00 228 J/kg -1.3 K 0 % 0 % 0 % 0 m²/s² 0 0 -0.4 80
17:00 186 J/kg -1.3 K 0 % 0 % 0 % 0 m²/s² 0 0 0.02 3
18:00 245 J/kg -1.4 K 0 % 0 % 0 % 0 m²/s² 0 0 0.1 3
19:00 195 J/kg -1.1 K 0 % 0 % 0 % 0 m²/s² 0 0 0.52 3
20:00 102 J/kg -0.6 K 0 % 0 % 0 % 0 m²/s² 0 0 1.02 80
21:00 12 J/kg -0.6 K 0 % 0 % 0 % 0 m²/s² 0 0 0.96 3
22:00 50 J/kg -0.5 K 0 % 0 % 0 % 0 m²/s² 0 0 0.67 2
23:00 111 J/kg -1.2 K 0 % 0 % 0 % 0 m²/s² 0 0 0.03 1
 05:08     21:22    Daglengte: 16:14 Morgen
00:00 49 J/kg -0.7 K 0 % 0 % 0 % 0 m²/s² 0 0 0.86 3
01:00 59 J/kg -0.6 K 0 % 0 % 0 % 0 m²/s² 0 0 0.78 3
02:00 55 J/kg -1.2 K 0 % 0 % 0 % 0 m²/s² 0 0 0.66 2
03:00 61 J/kg -1.5 K 0 % 0 % 0 % 0 m²/s² 0 0 0.9 80
04:00 270 J/kg -2.6 K 0 % 0 % 0 % 0 m²/s² 0 0 -0.56 80
05:00 281 J/kg -2.3 K 0 % 0 % 0 % 0 m²/s² 0 0 -0.11 80
06:00 234 J/kg -2.1 K 0 % 0 % 0 % 0 m²/s² 0 0 0.21 45
07:00 174 J/kg -2.1 K 0 % 0 % 0 % 0 m²/s² 0 0 0.21 3
08:00 381 J/kg -2.6 K 0 % 0 % 0 % 0 m²/s² 0 0 -0.62 3
09:00 830 J/kg -3.6 K 0 % 0 % 0 % 0 m²/s² 0 0 -1.5 3
10:00 1101 J/kg -4.4 K 0 % 0 % 0 % 0 m²/s² 0 0 -2.03 80
11:00 1234 J/kg -4.5 K 0 % 0 % 0 % 0 m²/s² 0 0 -2.19 80
12:00 1095 J/kg -3.6 K 0 % 0 % 0 % 0 m²/s² 0 0 -1.44 3
13:00 1042 J/kg -3.3 K 0 % 0 % 0 % 0 m²/s² 0 0 -1.65 3
14:00 1024 J/kg -3.2 K 0 % 0 % 0 % 0 m²/s² 0 0 -1.73 80
15:00 675 J/kg -2.4 K 0 % 0 % 0 % 0 m²/s² 0 0 -0.75 80
16:00 445 J/kg -2.5 K 0 % 0 % 0 % 0 m²/s² 0 0 -0.97 2
17:00 351 J/kg -1.7 K 0 % 0 % 0 % 0 m²/s² 0 0 0.13 3
18:00 345 J/kg -1.5 K 0 % 0 % 0 % 0 m²/s² 0 0 0.54 2
19:00 318 J/kg -1.3 K 0 % 0 % 0 % 0 m²/s² 0 0 0.74 1
20:00 349 J/kg -1.3 K 0 % 0 % 0 % 0 m²/s² 0 0 0.47 1
21:00 422 J/kg -1.6 K 0 % 0 % 0 % 0 m²/s² 0 0 0.23 3
22:00 593 J/kg -1.9 K 0 % 0 % 0 % 0 m²/s² 0 0 0.26 3
23:00 542 J/kg -1.3 K 0 % 0 % 0 % 0 m²/s² 0 0 1.28 2
 05:10     21:20    Daglengte: 16:10 Woensdag 28 Jul
00:00 599 J/kg -1.4 K 0 % 0 % 0 % 0 m²/s² 0 0 1.66 1
01:00 524 J/kg -1.4 K 0 % 0 % 0 % 0 m²/s² 0 0 2.2 1
02:00 531 J/kg -1.7 K 0 % 0 % 0 % 0 m²/s² 0 0 1.63 0
03:00 410 J/kg -1.4 K 0 % 0 % 0 % 0 m²/s² 0 0 1.99 3
04:00 262 J/kg -1.1 K 0 % 0 % 0 % 0 m²/s² 0 0 2.05 2
05:00 332 J/kg -1.2 K 0 % 0 % 0 % 0 m²/s² 0 0 0.75 3
06:00 377 J/kg -1.3 K 0 % 0 % 0 % 0 m²/s² 0 0 -1.27 3
07:00 289 J/kg -1.2 K 0 % 0 % 0 % 0 m²/s² 0 0 -1.11 3
08:00 41 J/kg 0.4 K 0 % 0 % 0 % 0 m²/s² 0 0 0.82 3
09:00 87 J/kg -0.3 K 0 % 0 % 0 % 0 m²/s² 0 0 0.39 61
10:00 157 J/kg -0.5 K 0 % 0 % 0 % 0 m²/s² 0 0 0.1 2
11:00 228 J/kg -0.8 K 0 % 0 % 0 % 0 m²/s² 0 0 -0.11 80
12:00 423 J/kg -1.6 K 0 % 0 % 0 % 0 m²/s² 0 0 -0.76 2
13:00 309 J/kg -1.3 K 0 % 0 % 0 % 0 m²/s² 0 0 -0.16 3
14:00 300 J/kg -1.2 K 0 % 0 % 0 % 0 m²/s² 0 0 -0 3
15:00 326 J/kg -1.3 K 0 % 0 % 0 % 0 m²/s² 0 0 -0.31 2
16:00 339 J/kg -1.0 K 0 % 0 % 0 % 0 m²/s² 0 0 0.35 2
17:00 364 J/kg -0.8 K 0 % 0 % 0 % 0 m²/s² 0 0 0.67 2
18:00 280 J/kg -0.4 K 0 % 0 % 0 % 0 m²/s² 0 0 1.55 3
19:00 379 J/kg -1.0 K 0 % 0 % 0 % 0 m²/s² 0 0 1.43 2
20:00 391 J/kg -1.3 K 0 % 0 % 0 % 0 m²/s² 0 0 0.59 3
21:00 516 J/kg -1.8 K 0 % 0 % 0 % 0 m²/s² 0 0 0.21 95
22:00 664 J/kg -2.3 K 0 % 0 % 0 % 0 m²/s² 0 0 -0.44 95
23:00 626 J/kg -2.6 K 0 % 0 % 0 % 0 m²/s² 0 0 -1.94 80
 05:12     21:18    Daglengte: 16:06 Donderdag 29 Jul
00:00 5 J/kg 1.0 K 0 % 0 % 0 % 0 m²/s² 0 0 3.19 2
01:00 297 J/kg -1.4 K 0 % 0 % 0 % 0 m²/s² 0 0 1.3 80
02:00 624 J/kg -2.7 K 0 % 0 % 0 % 0 m²/s² 0 0 -0.51 3
03:00 707 J/kg -3.4 K 0 % 0 % 0 % 0 m²/s² 0 0 -2.83 3
04:00 817 J/kg -3.7 K 0 % 0 % 0 % 0 m²/s² 0 0 -3.01 80
05:00 471 J/kg -1.6 K 0 % 0 % 0 % 0 m²/s² 0 0 -0.1 2
06:00 263 J/kg 0.0 K 0 % 0 % 0 % 0 m²/s² 0 0 2.76 2
07:00 253 J/kg 0.5 K 0 % 0 % 0 % 0 m²/s² 0 0 3.47 3
08:00 299 J/kg 0.7 K 0 % 0 % 0 % 0 m²/s² 0 0 1.66 80
09:00 80 J/kg 3.1 K 0 % 0 % 0 % 0 m²/s² 0 0 3.64 80
10:00 245 J/kg 2.2 K 0 % 0 % 0 % 0 m²/s² 0 0 2.62 95
11:00 388 J/kg 0.8 K 0 % 0 % 0 % 0 m²/s² 0 0 1.73 95
12:00 431 J/kg 0.1 K 0 % 0 % 0 % 0 m²/s² 0 0 1.99 80
13:00 336 J/kg 1.5 K 0 % 0 % 0 % 0 m²/s² 0 0 5.64 80
14:00 236 J/kg 3.0 K 0 % 0 % 0 % 0 m²/s² 0 0 6.72 3
Temp Baro Wind Neerslag
  EWN Forecast EWN WRFDA DWD ICON FMI HIRLAM MET Norway GFS
 05:06     21:24    Daglengte: 16:18 Vandaag
17:00 26.4° 1011.2 hPa 4.7 m/s 0.0 mm 26.6° 1011.0 hPa 6.9 m/s 0.9 mm 24.7° 1011.5 hPa 4.4 m/s -0.6 mm 27.5° 1011.0 hPa 6.0 m/s 0.0 mm 25.3° 1011.0 hPa 6.7 m/s
20:00 25.3° 1010.7 hPa 3.5 m/s 0.0 mm 24.7° 1010.4 hPa 5.1 m/s 1.0 mm 23.3° 1010.8 hPa 2.8 m/s 0.3 mm 25.8° 1010.7 hPa 5.0 m/s 0.0 mm 22.9° 1010.1 hPa 4.3 m/s
23:00 22.0° 1010.7 hPa 3.4 m/s 0.0 mm 20.7° 1010.3 hPa 4.0 m/s 1.0 mm 20.3° 1011.1 hPa 2.6 m/s 0.0 mm 22.4° 1010.5 hPa 3.4 m/s 0.0 mm 19.5° 1010.6 hPa 3.3 m/s
 05:08     21:22    Daglengte: 16:14 Morgen
02:00 20.0° 1010.0 hPa 2.2 m/s 0.0 mm 18.5° 1009.6 hPa 3.2 m/s 1.0 mm 19.4° 1010.2 hPa 2.1 m/s 0.0 mm 20.6° 1009.3 hPa 3.7 m/s 0.0 mm 18.2° 1009.9 hPa 2.5 m/s
05:00 19.3° 1009.3 hPa 1.9 m/s 0.0 mm 17.2° 1008.6 hPa 2.1 m/s 1.0 mm 18.7° 1010.3 hPa 1.9 m/s 2.0 mm 19.5° 1008.6 hPa 2.6 m/s 0.0 mm 18.1° 1009.2 hPa 2.4 m/s
08:00 20.8° 1009.1 hPa 2.0 m/s 0.0 mm 19.7° 1008.1 hPa 2.0 m/s 1.0 mm 20.1° 1009.7 hPa 1.8 m/s 0.0 mm 21.6° 1008.5 hPa 3.5 m/s 0.0 mm 20.5° 1009.4 hPa 2.8 m/s
11:00 22.7° 1009.4 hPa 3.7 m/s 0.3 mm 23.6° 1008.3 hPa 3.3 m/s 1.0 mm 21.8° 1009.9 hPa 2.9 m/s 0.9 mm 22.5° 1008.8 hPa 4.5 m/s 0.0 mm 21.4° 1009.7 hPa 3.8 m/s
14:00 23.4° 1009.5 hPa 4.7 m/s 0.8 mm 25.5° 1008.4 hPa 4.5 m/s 1.0 mm 22.0° 1009.9 hPa 3.9 m/s 0.6 mm 24.7° 1008.9 hPa 4.8 m/s 0.0 mm 22.3° 1010.0 hPa 6.1 m/s
17:00 24.0° 1009.1 hPa 5.4 m/s 0.0 mm 25.5° 1007.9 hPa 4.8 m/s 1.0 mm 22.7° 1009.3 hPa 5.3 m/s 0.3 mm 24.6° 1008.8 hPa 5.3 m/s 0.0 mm 22.3° 1009.7 hPa 5.7 m/s
20:00 22.2° 1009.0 hPa 5.1 m/s 0.0 mm 24.1° 1007.5 hPa 5.7 m/s 1.0 mm 21.7° 1009.5 hPa 4.8 m/s 0.0 mm 22.3° 1008.5 hPa 4.9 m/s 0.0 mm 20.6° 1009.4 hPa 5.3 m/s
23:00 20.5° 1009.6 hPa 3.7 m/s 0.0 mm 21.9° 1008.0 hPa 2.5 m/s 1.0 mm 20.3° 1009.8 hPa 3.5 m/s 0.0 mm 20.0° 1009.5 hPa 3.5 m/s 0.0 mm 18.9° 1010.3 hPa 4.0 m/s
 05:10     21:20    Daglengte: 16:10 Woensdag 28 Jul
02:00 19.6° 1009.2 hPa 2.5 m/s 0.0 mm 20.6° 1007.8 hPa 1.1 m/s 1.0 mm 19.6° 1009.5 hPa 3.5 m/s 0.0 mm 18.4° 1009.2 hPa 1.7 m/s 0.0 mm 18.4° 1010.1 hPa 3.0 m/s
05:00 18.5° 1008.5 hPa 2.1 m/s 0.0 mm 18.9° 1006.9 hPa 1.0 m/s 1.0 mm 18.3° 1008.8 hPa 2.1 m/s 0.0 mm 17.9° 1008.7 hPa 1.8 m/s 0.0 mm 18.2° 1008.8 hPa 3.6 m/s
08:00 19.8° 1008.1 hPa 3.0 m/s 1.0 mm 18.2° 1006.8 hPa 0.8 m/s 3.7 mm 19.7° 1008.2 hPa 2.9 m/s 0.5 mm 20.2° 1008.6 hPa 3.0 m/s 0.0 mm 19.4° 1008.5 hPa 5.2 m/s
11:00 20.4° 1008.0 hPa 4.9 m/s 1.0 mm 21.3° 1006.5 hPa 5.0 m/s 8.0 mm 20.2° 1008.2 hPa 5.0 m/s 1.3 mm 20.4° 1008.5 hPa 5.2 m/s
14:00 21.6° 1007.1 hPa 6.6 m/s 1.0 mm 22.6° 1006.0 hPa 7.1 m/s 8.0 mm 21.5° 1007.2 hPa 5.7 m/s 0.0 mm 20.6° 1008.3 hPa 6.8 m/s
17:00 21.9° 1006.6 hPa 5.9 m/s 1.1 mm 22.6° 1006.0 hPa 6.0 m/s 8.0 mm 21.2° 1006.6 hPa 5.9 m/s 0.0 mm 20.2° 1007.9 hPa 6.1 m/s
20:00 20.6° 1005.6 hPa 5.0 m/s 3.8 mm 22.3° 1005.3 hPa 3.3 m/s 8.0 mm 20.6° 1005.1 hPa 6.0 m/s 0.1 mm 19.8° 1007.2 hPa 5.6 m/s
23:00 19.2° 1005.5 hPa 6.5 m/s 4.1 mm 19.5° 1005.4 hPa 8.2 m/s 8.2 mm 18.5° 1004.6 hPa 6.7 m/s 3.1 mm 18.1° 1007.3 hPa 5.9 m/s
 05:12     21:18    Daglengte: 16:06 Donderdag 29 Jul
02:00 18.4° 1005.0 hPa 6.3 m/s 2.3 mm 19.0° 1005.1 hPa 4.0 m/s 8.6 mm 17.6° 1003.7 hPa 6.6 m/s 1.0 mm 17.5° 1006.4 hPa 6.0 m/s
05:00 17.9° 1004.1 hPa 6.8 m/s 3.4 mm 18.8° 1004.1 hPa 6.8 m/s 9.1 mm 16.8° 1002.9 hPa 7.2 m/s 1.2 mm 17.0° 1005.1 hPa 6.3 m/s
08:00 18.3° 1004.0 hPa 6.7 m/s 3.3 mm 19.2° 1004.5 hPa 6.0 m/s 9.9 mm 16.8° 1001.9 hPa 6.9 m/s 0.6 mm 17.9° 1003.6 hPa 9.7 m/s
11:00 17.6° 1002.1 hPa 8.3 m/s 5.6 mm 20.5° 1003.7 hPa 8.1 m/s 9.9 mm 16.9° 1001.7 hPa 8.4 m/s 3.4 mm 16.9° 1003.4 hPa 11.7 m/s
14:00 18.3° 1001.8 hPa 10.2 m/s 4.8 mm 21.7° 1002.8 hPa 10.3 m/s 10.0 mm 17.4° 1001.5 hPa 10.1 m/s 2.2 mm 18.4° 1003.3 hPa 12.5 m/s
17:00 17.4° 1002.3 hPa 13.7 m/s 11.3 mm 17.4° 1002.3 hPa 13.7 m/s 11.3 mm
20:00 17.0° 1002.5 hPa 13.4 m/s 12.8 mm 17.0° 1002.5 hPa 13.4 m/s 12.8 mm
23:00 16.4° 1002.7 hPa 11.7 m/s 13.0 mm 16.4° 1002.7 hPa 11.7 m/s 13.0 mm
 05:13     21:17    Daglengte: 16:04 Vrijdag 30 Jul
02:00 16.4° 1001.3 hPa 11.9 m/s 14.1 mm 16.4° 1001.3 hPa 11.9 m/s 14.1 mm
05:00 16.6° 1000.1 hPa 11.7 m/s 16.2 mm 16.6° 1000.1 hPa 11.7 m/s 16.2 mm
08:00 16.9° 1000.7 hPa 11.6 m/s 16.7 mm 16.9° 1000.7 hPa 11.6 m/s 16.7 mm
11:00 19.6° 1001.4 hPa 10.3 m/s 16.9 mm 19.6° 1001.4 hPa 10.3 m/s 16.9 mm
14:00 20.9° 1001.7 hPa 11.2 m/s 17.5 mm 20.9° 1001.7 hPa 11.2 m/s 17.5 mm
17:00 20.8° 1002.5 hPa 10.9 m/s 17.7 mm 20.8° 1002.5 hPa 10.9 m/s 17.7 mm
20:00 18.8° 1003.2 hPa 10.5 m/s 17.7 mm 18.8° 1003.2 hPa 10.5 m/s 17.7 mm
23:00 17.7° 1003.8 hPa 10.0 m/s 17.7 mm 17.7° 1003.8 hPa 10.0 m/s 17.7 mm
 05:15     21:15    Daglengte: 16:00 Zaterdag 31 Jul
02:00 16.4° 1004.6 hPa 8.9 m/s 17.7 mm 16.4° 1004.6 hPa 8.9 m/s 17.7 mm
05:00 16.2° 1003.9 hPa 6.9 m/s 17.7 mm 16.2° 1003.9 hPa 6.9 m/s 17.7 mm
08:00 17.2° 1004.4 hPa 7.1 m/s 17.8 mm 17.2° 1004.4 hPa 7.1 m/s 17.8 mm
11:00 19.1° 1004.4 hPa 6.8 m/s 17.9 mm 19.1° 1004.4 hPa 6.8 m/s 17.9 mm
14:00 20.3° 1003.6 hPa 6.2 m/s 17.9 mm 20.3° 1003.6 hPa 6.2 m/s 17.9 mm
17:00 19.6° 1002.5 hPa 7.0 m/s 18.7 mm 19.6° 1002.5 hPa 7.0 m/s 18.7 mm
20:00 18.1° 1001.0 hPa 6.0 m/s 21.1 mm 18.1° 1001.0 hPa 6.0 m/s 21.1 mm
23:00 16.7° 1000.8 hPa 6.2 m/s 24.7 mm 16.7° 1000.8 hPa 6.2 m/s 24.7 mm
 05:17     21:13    Daglengte: 15:56 Zondag 01 Aug
02:00 16.4° 999.9 hPa 5.7 m/s 25.9 mm 16.4° 999.9 hPa 5.7 m/s 25.9 mm
05:00 16.0° 999.9 hPa 6.6 m/s 26.3 mm 16.0° 999.9 hPa 6.6 m/s 26.3 mm
08:00 16.1° 1001.1 hPa 6.4 m/s 26.4 mm 16.1° 1001.1 hPa 6.4 m/s 26.4 mm
11:00 17.3° 1002.2 hPa 6.5 m/s 26.4 mm 17.3° 1002.2 hPa 6.5 m/s 26.4 mm
14:00 19.7° 1002.4 hPa 6.6 m/s 26.5 mm 19.7° 1002.4 hPa 6.6 m/s 26.5 mm
17:00 18.7° 1002.7 hPa 7.6 m/s 26.8 mm 18.7° 1002.7 hPa 7.6 m/s 26.8 mm
20:00 18.2° 1002.5 hPa 6.6 m/s 27.1 mm 18.2° 1002.5 hPa 6.6 m/s 27.1 mm
23:00 16.6° 1002.9 hPa 6.7 m/s 27.1 mm 16.6° 1002.9 hPa 6.7 m/s 27.1 mm
 05:19     21:11    Daglengte: 15:52 Maandag 02 Aug
02:00 15.0° 1003.3 hPa 8.0 m/s 27.1 mm 15.0° 1003.3 hPa 8.0 m/s 27.1 mm
05:00 14.4° 1003.2 hPa 8.3 m/s 27.1 mm 14.4° 1003.2 hPa 8.3 m/s 27.1 mm
08:00 15.2° 1003.6 hPa 9.5 m/s 27.3 mm 15.2° 1003.6 hPa 9.5 m/s 27.3 mm
11:00 16.6° 1004.4 hPa 10.7 m/s 27.7 mm 16.6° 1004.4 hPa 10.7 m/s 27.7 mm
14:00 17.5° 1005.4 hPa 10.1 m/s 28.1 mm 17.5° 1005.4 hPa 10.1 m/s 28.1 mm
20:00 17.0° 1006.8 hPa 10.1 m/s 28.8 mm 17.0° 1006.8 hPa 10.1 m/s 28.8 mm
 05:21     21:09    Daglengte: 15:48 Dinsdag 03 Aug
02:00 15.4° 1009.1 hPa 9.7 m/s 29.3 mm 15.4° 1009.1 hPa 9.7 m/s 29.3 mm
08:00 15.2° 1010.3 hPa 8.3 m/s 30.1 mm 15.2° 1010.3 hPa 8.3 m/s 30.1 mm
14:00 18.8° 1010.5 hPa 8.9 m/s 30.5 mm 18.8° 1010.5 hPa 8.9 m/s 30.5 mm
20:00 18.4° 1010.5 hPa 5.6 m/s 30.7 mm 18.4° 1010.5 hPa 5.6 m/s 30.7 mm
 05:23     21:07    Daglengte: 15:44 Woensdag 04 Aug
02:00 15.7° 1011.2 hPa 5.3 m/s 30.8 mm 15.7° 1011.2 hPa 5.3 m/s 30.8 mm
08:00 17.8° 1010.1 hPa 8.1 m/s 30.8 mm 17.8° 1010.1 hPa 8.1 m/s 30.8 mm
14:00 19.1° 1008.1 hPa 10.6 m/s 32.4 mm 19.1° 1008.1 hPa 10.6 m/s 32.4 mm
20:00 18.9° 1005.6 hPa 7.6 m/s 33.8 mm 18.9° 1005.6 hPa 7.6 m/s 33.8 mm
 05:24     21:05    Daglengte: 15:41 Donderdag 05 Aug
02:00 16.6° 1003.8 hPa 8.2 m/s 39.7 mm 16.6° 1003.8 hPa 8.2 m/s 39.7 mm
08:00 17.1° 1002.2 hPa 9.4 m/s 42.1 mm 17.1° 1002.2 hPa 9.4 m/s 42.1 mm
14:00 19.0° 1009.1 hPa 4.4 m/s 0.5 mm
20:00 18.1° 1008.2 hPa 2.5 m/s 0.6 mm
 05:26     21:02    Daglengte: 15:36 Vrijdag 06 Aug
02:00 16.2° 1007.7 hPa 1.4 m/s 0.7 mm
08:00 16.8° 1006.6 hPa 1.3 m/s 0.7 mm
14:00 19.3° 1005.9 hPa 3.0 m/s 0.5 mm
20:00 18.2° 1004.9 hPa 2.3 m/s 1.2 mm
 05:28     21:00    Daglengte: 15:32 Zaterdag 07 Aug
02:00 16.1° 1004.7 hPa 1.8 m/s 1.1 mm
08:00 16.7° 1004.3 hPa 1.5 m/s 0.0 mm
14:00 18.8° 1004.2 hPa 2.2 m/s 1.7 mm
20:00 17.7° 1004.1 hPa 1.7 m/s 1.5 mm
 05:30     20:58    Daglengte: 15:28 Zondag 08 Aug
02:00 15.9° 1005.0 hPa 2.2 m/s 0.5 mm
08:00 16.4° 1005.3 hPa 2.8 m/s 0.6 mm
14:00 18.9° 1006.1 hPa 4.2 m/s 0.5 mm
20:00 17.8° 1006.5 hPa 3.4 m/s 1.6 mm
 05:32     20:56    Daglengte: 15:24 Maandag 09 Aug
02:00 15.7° 1007.5 hPa 3.2 m/s 0.8 mm
08:00 16.1° 1007.5 hPa 2.6 m/s 0.7 mm
14:00 18.4° 1008.4 hPa 4.2 m/s 1.5 mm
20:00 17.4° 1008.9 hPa 4.0 m/s 1.4 mm
 05:34     20:54    Daglengte: 15:20 Dinsdag 10 Aug
02:00 15.9° 1010.0 hPa 4.4 m/s 1.0 mm
08:00 16.2° 1010.4 hPa 4.1 m/s 0.5 mm
14:00 18.5° 1011.1 hPa 4.6 m/s 0.7 mm
FMI Hirlam - 7.5 km EWN WRFDA - 12 km DWD ICON - 7 km GFS - 25 km Basiskaart






























































Updatetijd (Europe/Amsterdam) Resolutie Lengte Stap
FMI Hirlam 14:00, 20:00, 02:00, 08:00 7.5 km 49h 1h
EWN WRFDA 10:30, 16:30, 22:30, 04:30 12 km 73h 1h
DWD ICON 11:45, 17:45, 23:45, 05:45 7 km 75h 1h
GFS 14:15, 20:15, 02:15, 08:15 25 km 237h 3h
30+ mm
25-30 mm
20-25 mm
15-20 mm
10-15 mm
6-10 mm
4-6 mm
2-4 mm
1-2 mm
0.5-1 mm
0.2-0.5 mm
0.1-0.2 mm
30+ mm
25-30 mm
20-25 mm
15-20 mm
10-15 mm
6-10 mm
4-6 mm
2-4 mm
1-2 mm
0.5-1 mm
0.2-0.5 mm
0.1-0.2 mm
Sneeuwval
Natte sneeuw
Hagel
Vorst
30+ mm
25-30 mm
20-25 mm
15-20 mm
10-15 mm
6-10 mm
4-6 mm
2-4 mm
1-2 mm
0.5-1 mm
0.2-0.5 mm
0.1-0.2 mm
Sneeuwval
Natte sneeuw
Hagel
Vorst
Onweer
50 mm
40 mm
30 mm
26 mm
22 mm
18 mm
14 mm
10 mm
9 mm
8 mm
7 mm
6 mm
5 mm
4.5 mm
4 mm
3.5 mm
3 mm
2.5 mm
2 mm
1.5 mm
1 mm
0.8 mm
0.6 mm
0.4 mm
0.2 mm
0.05 mm